Location: Colorado Springs
(38.8340°N, 104.8210°W)
Time: 17:17:20
(UTC-07:00)

Vanguard 3 - Pass Details

Date: 30 October 2017
Orbit: 509 x 3263 km, 33.4° (Epoch: 18 November)

Event Time Altitude Azimuth Distance (km) Brightness Sun altitude
Rises 06:48:21 0° 278° (W) 6,687 - -7.7°
Exits shadow 06:52:07 - 276° (W) 5,695 10.8 -6.9°
Reaches altitude 10° 06:53:32 10° 274° (W) 5,312 10.6 -6.7°
Maximum altitude 07:06:57 48° 207° (SSW) 2,161 9.2 -4.1°
Drops below altitude 10° 07:14:42 10° 135° (SE) 3,135 11.3 -2.7°
Sets 07:17:00 0° 129° (SE) 3,821 12.1 -2.3°
